STARLINK-5060, 55413

Orbit data source: Space-Track

STARLINK-5060, 55413 is a payload satellite owned by SpaceX/Seattle (US) in LEO that was launched on Tue, 31 Jan 2023 UTC via an FALCON 9 launch vehicle from the Air Force Western Test Range (AFWTR). Payload-class satellites include a variety of spacecraft equipped with specific instruments for various scientific and technological missions. These include communications satellites like Starlink; space stations such as the ISS; scientific satellites like the Hubble; Earth observation satellites from companies like Planet Labs, Umbra, and HawkEye 360; GPS; miniature CubeSats for education and research; and military/defense satellites.

Loading next visibility...
Identifier
55413, 2023-014Y
Orbit
LEO
Country
Flag of USUS
Related business
Manufacturer
SpaceX/Seattle
Mission
Operational Commercial Communications
Bus & Motor
STARLINK, Unknown motor
Mass
305 kg wet, ~290 kg dry
Launch date (UTC)
2023-01-31 (3 years ago)
Launch vehicle
FALCON 9
Launch site
Air Force Western Test Range (AFWTR)
Object type
Payload
Rocket body
Debris
Shape & HBR
Box + 1 Pan, 10.1 m
Radar Cross Section
13.562 m², Large (>1 m²)

Expand to show TLE details & history
Last TLE update: 2 days ago

TLE from 2 days ago
0 STARLINK-5060
1 55413U 23014Y   26171.34453330  .00000007  00000-0  83933-5 0  9998
2 55413  69.9987 185.4319 0003542 268.8756  91.1997 14.98331557186945
Epoch: 2026-06-20T08:16Z
TLE epoch observation values (Epoch: 2026-06-20T08:16:07.677Z)
Latitude
-0.00003°
Longitude
152.8394°
Altitude
574.527 km
Speed
7.574 km/s
True Right ascension
12h 21m 43s
True Declination
0° 00' 00"
Sunlit
Object was in daylight at epoch
Visualization orbit readout
Latitude
Unknown
Longitude
Unknown
Altitude
Unknown
Speed
Unknown
Apparent Right ascension
Unknown
Apparent Declination
Unknown
Sunlit
N/A
Visualization observer readout
Local Sidereal Time
21:24:04
Azimuth
Unknown
Elevation
Unknown
Doppler factor
Unknown
Orbital elements
Apogee altitude
572.46 km
Perigee altitude
567.538 km
Semi-major axis
6,948.136 km
Eccentricity
0.00035
Inclination
69.9987°
RAAN
185.4319°
Arg. of periapsis
268.8756°
True anomaly
91.24028°
Mean anomaly
91.1997°
Eccentric anomaly
91.21999°
Mean motion
3.74749 °/min
Orbital period
96.06 mins
BSTAR
0.0000083933
Loading maneuver chart data...
Computing Atmospheric mass density...

Documentation

Showing up to 5 results
|